星链-30281 (STARLINK-30281 )

导读

STARLINK-30281是美国SpaceX公司星链计划中的一颗卫星,于2023年8月27日发射升空。作为星链星座的组成部分,它主要为全球范围内提供低延迟、高速率的宽带互联网服务,尤其服务于偏远地区及网络基础设施薄弱区域,进一步扩充了星链卫星网络的覆盖规模与服务能力。

Basic Information
目录编号:
57716
目录名称:
STARLINK-30281
国际标识:
2023-129U
轨道中心:
EARTH
卫星名称:
星链-30281
卫星全名:
星链-30281 (STARLINK-30281 )
卫星状态:
在轨 (已飞行1104 天)
发射日期:
2023-08-27 UTC
国别 :
美国 (US)
星等 :
--
Orbit Information
数据来源 国际轨道数据 AOE轨道数据
星历时间 2026-09-02T06:31:10+0800
2天前
查看轨道信息
2026-09-04T00:00:00+0800
10小时前
查看轨道信息
半长轴 6861.096km 6861.214km
偏心率 0.0001234 0.0000047
轨道倾角 43.003° 43.002°
近地点辐角 273.587° 328.922°
升交点赤经 202.879° 193.120°
平近点角 86.484° 186.965°
近地点 482.112km 483.044km
远地点 483.806km 483.11km
周期 94.265分钟 94.267分钟
每日圈数 15.276103 15.27571
Detailed Information
固有亮度:
5
最大亮度:
0.3
卫星平台:
Starlink v2.0 mini
覆盖范围:
全球
运营商:
太空探索技术公司
运营商所在国:
美国
制造商(研发单位):
太空探索技术公司
制造商所在国:
美国
使用方式:
暂无
Satellite Introduction
星链(Starlink)计划是由太空探索技术公司(SpaceX)提出的一个巨型低轨卫星互联网星座项目,计划在2019年至2024年间在太空搭建由约1.2万颗卫星组成的“星链”网络,其中1584颗将部署在地球上空550千米处的近地轨道,并从2020年开始工作。该卫星仍在工作。
2D Orbit Map
3D Orbit Map
Orbit Altitude Analysis Chart
Orbit Inclination Analysis Chart
Orbit Comprehensive Analysis Chart
View Comprehensive Chart
Conjunction Data List
Event ID Objects TCA Miss Dist (km) Collision Risk Probability Collision Risk Index (CRI) Action
CDM_260903-210905-771606-430621
2026-09-03T
21:09:11+0000
0.492 km
远距离
1.596237E-4 高风险 0.79
CDM_260904-020005-771605-846623
UHETSAT (58466)
2026-09-04T
02:00:04+0000
1.124 km
极远距离
1.653041E-5 中风险 0.59
CDM_260904-165705-771606-729422
2026-09-04T
16:57:18+0000
1.692 km
极远距离
4.312856E-6 低风险 0.48
CDM_260828-213605-771606-261623
2026-08-28T
21:36:29+0000
1.912 km
极远距离
2.749366E-6 低风险 0.44
CDM_260828-104305-771606-391121
2026-08-28T
10:43:38+0000
2.367 km
极远距离
1.035089E-6 低风险 0.35